Weather History for KLBF - October, 2011

Change the Weather History Date:

Tuesday, October 25, 2011

  Actual Average Record
Temperature  
Mean Temperature 47 °F 46 °F  
Max Temperature 58 °F 61 °F 87 °F (1959)
Min Temperature 36 °F 30 °F 13 °F (1975)
Degree Days  
Heating Degree Days 18 19  
Month to date heating degree days 268 372  
Since 1 July heating degree days 443 543  
Cooling Degree Days 0 0  
Month to date cooling degree days 17 0  
Year to date cooling degree days 921 765  
Moisture  
Dew Point 38 °F    
Average Humidity 72    
Maximum Humidity 96    
Minimum Humidity 47    
Precipitation  
Precipitation 0.20 in 0.05 in 0.67 in (1918)
Month to date precipitation 2.11 1.32  
Year to date precipitation 23.21 18.95  
Snow  
Snow 0.00 in 0.10 in 2.50 in (1997)
Month to date snowfall 0.0 1.5  
Since 1 July snowfall 0.0 1.7  
Since 1 September snowfall 0.0 1.7  
Snow Depth 0.00 in    
Sea Level Pressure  
Sea Level Pressure 29.94 in    
Wind  
Wind Speed 13 mph (NNW)    
Max Wind Speed 26 mph    
Max Gust Speed 33 mph    
Visibility 10 miles    
Events Rain    
T = Trace of Precipitation, MM = Missing Value Source: NWS Daily Summary

Daily Weather History Graph

Daily Weather History Graph

Search for Another Location

Airport or City:

Trip Planner

Search our weather history database for the weather conditions in past years. The results will help you decide how hot, cold, wet, or windy it might be!

Date:

Astronomy

Oct. 25, 2011 Rise Set
Actual Time 8:05 AM CDT 6:47 PM CDT
Civil Twilight 7:37 AM CDT 7:15 PM CDT
Nautical Twilight 7:04 AM CDT 7:47 PM CDT
Astronomical Twilight 6:32 AM CDT 8:19 PM CDT
Moon 6:39 AM CDT (10/25) 5:50 PM CDT (10/25)
Length of Visible Light 11h 38m
Length of Day
10h 42m
Waning Crescent, 2% of the Moon is Illuminated
Oct 25
Waning Crescent
Oct 26
New
Nov 2
First Quarter
Nov 10
Full
Nov 18
Last Quarter

Hourly Weather History & Observations

Time (CDT) Temp. Windchill Dew Point Humidity Pressure Visibility Wind Dir Wind Speed Gust Speed Precip Events Conditions
12:53 AM 43.0 °F - 41.0 °F 93% 29.71 in 10.0 mi Calm Calm - N/A   Clear
1:53 AM 41.0 °F - 39.0 °F 93% 29.70 in 10.0 mi Calm Calm - N/A   Clear
2:53 AM 44.1 °F 40.1 °F 42.1 °F 93% 29.70 in 10.0 mi WNW 6.9 mph - N/A   Clear
3:53 AM 39.9 °F - 37.9 °F 93% 29.68 in 10.0 mi Calm Calm - N/A   Clear
4:53 AM 37.0 °F 32.4 °F 36.0 °F 96% 29.70 in 10.0 mi WNW 5.8 mph - N/A   Clear
5:53 AM 39.0 °F 33.4 °F 37.0 °F 93% 29.75 in 10.0 mi WNW 8.1 mph - N/A   Clear
6:53 AM 44.1 °F 38.1 °F 37.0 °F 76% 29.81 in 10.0 mi NNW 11.5 mph - N/A   Clear
7:53 AM 39.9 °F 32.5 °F 34.0 °F 79% 29.87 in 10.0 mi WNW 12.7 mph 18.4 mph N/A   Clear
8:53 AM 42.1 °F 36.1 °F 36.0 °F 79% 29.91 in 10.0 mi NW 10.4 mph - N/A   Clear
9:53 AM 46.9 °F - 39.0 °F 74% 29.95 in 10.0 mi NW 24.2 mph 28.8 mph N/A   Clear
10:53 AM 48.9 °F - 37.9 °F 66% 29.97 in 10.0 mi NNW 20.7 mph 28.8 mph N/A   Clear
11:53 AM 52.0 °F - 39.0 °F 61% 29.96 in 10.0 mi NNW 16.1 mph 28.8 mph N/A   Clear
12:53 PM 55.0 °F - 39.0 °F 55% 29.98 in 10.0 mi North 21.9 mph 28.8 mph N/A   Clear
1:53 PM 57.2 °F - 39.2 °F 51% 29.98 in 10.0 mi North 18.4 mph 26.5 mph N/A   Clear
2:53 PM 57.0 °F - 37.9 °F 49% 29.97 in 10.0 mi North 20.7 mph 32.2 mph N/A   Clear
3:53 PM 57.2 °F - 37.4 °F 48% 29.98 in 10.0 mi North 18.4 mph 25.3 mph N/A   Clear
4:53 PM 55.9 °F - 37.0 °F 49% 29.99 in 10.0 mi North 23.0 mph 33.4 mph N/A   Clear
5:53 PM 53.6 °F - 37.4 °F 54% 30.02 in 10.0 mi North 16.1 mph 24.2 mph N/A   Clear
6:53 PM 48.9 °F - 35.1 °F 59% 30.05 in 10.0 mi North 16.1 mph 24.2 mph N/A   Clear
7:53 PM 48.2 °F - 35.6 °F 62% 30.08 in 10.0 mi North 15.0 mph - N/A   Partly Cloudy
8:53 PM 46.9 °F - 37.0 °F 68% 30.13 in 10.0 mi North 10.4 mph - N/A   Clear
9:53 PM 46.9 °F - 37.9 °F 71% 30.17 in 10.0 mi North 11.5 mph - N/A   Scattered Clouds
10:53 PM 44.1 °F 41.5 °F 41.0 °F 89% 30.20 in 7.0 mi NNW 4.6 mph - 0.02 in Rain Light Rain
11:53 PM 43.0 °F 36.8 °F 39.9 °F 89% 30.19 in 10.0 mi North 11.5 mph - 0.08 in Rain Light Rain